• In Germany
  • List of Countries
  • For 7 days
  • Water Temperature
  • Satellite Maps
  • Weather Map
  • Weather Widgets
  • user-avatar
    Login

    Hourly Weather Kerns

    Today, 20 September, Wednesday

    Time Temperature Precipitation Wind Pressure Humidity
    00:00 +23°C° 1 mm 4 mps 762 mmHg 96%
    01:00 +23°C° 1 mm 4 mps 762 mmHg 96%
    02:00 +23°C° 0.9 mm 4 mps 762 mmHg 96%
    03:00 +23°C° 0.9 mm 4 mps 761 mmHg 96%
    04:00 +23°C° 0 mm 4 mps 761 mmHg 96%
    05:00 +23°C° 0.1 mm 4 mps 761 mmHg 96%
    06:00 +23°C° 0.1 mm 4 mps 762 mmHg 96%
    07:00 +23°C° 0.1 mm 4 mps 762 mmHg 95%
    08:00 +25°C° 0 mm 4 mps 762 mmHg 90%
    09:00 +26°C° 0 mm 4 mps 762 mmHg 84%
    10:00 +30°C° 0 mm 3 mps 762 mmHg 68%
    11:00 +30°C° 0 mm 3 mps 761 mmHg 64%
    12:00 +31°C° 0 mm 3 mps 761 mmHg 60%
    13:00 +33°C° 0 mm 4 mps 760 mmHg 55%
    14:00 +32°C° 0 mm 4 mps 760 mmHg 58%
    15:00 +32°C° 0 mm 4 mps 760 mmHg 62%
    16:00 +30°C° 0 mm 4 mps 759 mmHg 66%
    17:00 +28°C° 0 mm 4 mps 760 mmHg 74%
    18:00 +26°C° 0 mm 3 mps 760 mmHg 82%
    19:00 +25°C° 0 mm 3 mps 760 mmHg 90%
    20:00 +24°C° 0 mm 3 mps 760 mmHg 92%
    21:00 +22°C° 0 mm 3 mps 761 mmHg 94%
    22:00 +23°C° 0 mm 2 mps 761 mmHg 96%
    23:00 +21°C° 0 mm 2 mps 761 mmHg 95%

    Tomorrow, 21 September, Thursday

    Time Temperature Precipitation Wind Pressure Humidity
    00:00 +21°C° 0 mm 2 mps 761 mmHg 94%
    01:00 +21°C° 0 mm 2 mps 761 mmHg 93%
    02:00 +20°C° 0 mm 3 mps 760 mmHg 93%
    03:00 +20°C° 0 mm 3 mps 760 mmHg 93%
    04:00 +20°C° 0 mm 3 mps 760 mmHg 93%
    05:00 +20°C° 0 mm 3 mps 761 mmHg 91%
    06:00 +21°C° 0 mm 3 mps 761 mmHg 89%
    07:00 +21°C° 0 mm 3 mps 761 mmHg 86%
    08:00 +24°C° 0 mm 3 mps 761 mmHg 75%
    09:00 +27°C° 0 mm 3 mps 761 mmHg 64%
    10:00 +30°C° 0 mm 4 mps 762 mmHg 53%
    11:00 +30°C° 0 mm 4 mps 761 mmHg 50%
    12:00 +32°C° 0 mm 4 mps 760 mmHg 48%
    13:00 +33°C° 0 mm 4 mps 760 mmHg 45%
    14:00 +33°C° 0 mm 4 mps 760 mmHg 47%
    15:00 +32°C° 0 mm 4 mps 759 mmHg 50%
    16:00 +31°C° 0 mm 3 mps 759 mmHg 52%
    17:00 +28°C° 0 mm 3 mps 759 mmHg 64%
    18:00 +26°C° 0 mm 3 mps 760 mmHg 76%
    19:00 +24°C° 0 mm 3 mps 760 mmHg 87%
    20:00 +22°C° 0 mm 3 mps 760 mmHg 90%
    21:00 +22°C° 0 mm 3 mps 761 mmHg 93%
    22:00 +21°C° 0 mm 3 mps 761 mmHg 96%
    23:00 +21°C° 0 mm 3 mps 761 mmHg 96%

    Day after tomorrow, 22 September, Friday

    Time Temperature Precipitation Wind Pressure Humidity
    00:00 +21°C° 0 mm 3 mps 761 mmHg 96%
    01:00 +21°C° 0 mm 3 mps 761 mmHg 97%
    02:00 +21°C° 0 mm 3 mps 760 mmHg 97%
    03:00 +22°C° 0 mm 3 mps 760 mmHg 97%
    04:00 +22°C° 0 mm 3 mps 760 mmHg 96%
    05:00 +22°C° 0 mm 3 mps 760 mmHg 95%
    06:00 +22°C° 0 mm 3 mps 761 mmHg 94%
    07:00 +24°C° 0 mm 3 mps 761 mmHg 93%
    08:00 +26°C° 0.1 mm 3 mps 762 mmHg 84%
    09:00 +28°C° 0.1 mm 3 mps 762 mmHg 75%
    10:00 +30°C° 0.1 mm 3 mps 762 mmHg 66%
    11:00 +32°C° 0 mm 4 mps 762 mmHg 62%
    12:00 +33°C° 0 mm 4 mps 761 mmHg 58%
    13:00 +34°C° 0 mm 4 mps 760 mmHg 54%
    14:00 +33°C° 0 mm 4 mps 760 mmHg 57%
    15:00 +33°C° 0 mm 4 mps 759 mmHg 59%
    16:00 +31°C° 0 mm 3 mps 759 mmHg 61%
    17:00 +29°C° 0 mm 3 mps 759 mmHg 71%
    18:00 +27°C° 0 mm 3 mps 760 mmHg 81%
    19:00 +25°C° 0 mm 3 mps 760 mmHg 91%
    20:00 +25°C° 0 mm 3 mps 761 mmHg 91%
    21:00 +25°C° 0 mm 3 mps 761 mmHg 92%
    22:00 +25°C° 0 mm 3 mps 762 mmHg 92%
    23:00 +24°C° 0 mm 3 mps 761 mmHg 92%

    23 September, Saturday

    Time Temperature Precipitation Wind Pressure Humidity
    00:00 +24°C° 0 mm 3 mps 761 mmHg 92%
    01:00 +24°C° 0 mm 3 mps 761 mmHg 92%
    02:00 +24°C° 0 mm 3 mps 761 mmHg 93%
    03:00 +24°C° 0 mm 3 mps 760 mmHg 93%
    04:00 +22°C° 0 mm 3 mps 760 mmHg 94%
    05:00 +24°C° 0 mm 3 mps 761 mmHg 94%
    06:00 +24°C° 0 mm 3 mps 761 mmHg 93%
    07:00 +24°C° 0 mm 3 mps 762 mmHg 93%
    08:00 +26°C° 0 mm 3 mps 762 mmHg 82%
    09:00 +28°C° 0 mm 3 mps 762 mmHg 71%
    10:00 +30°C° 0 mm 4 mps 762 mmHg 59%
    11:00 +32°C° 0 mm 4 mps 761 mmHg 55%
    12:00 +33°C° 0 mm 4 mps 761 mmHg 50%
    13:00 +34°C° 0 mm 4 mps 760 mmHg 45%
    14:00 +33°C° 0 mm 4 mps 760 mmHg 47%
    15:00 +33°C° 0 mm 4 mps 759 mmHg 49%
    16:00 +32°C° 0 mm 4 mps 759 mmHg 51%
    17:00 +29°C° 0 mm 3 mps 759 mmHg 64%
    18:00 +27°C° 0 mm 3 mps 760 mmHg 76%
    19:00 +24°C° 0 mm 3 mps 760 mmHg 89%
    20:00 +24°C° 0 mm 3 mps 761 mmHg 92%
    21:00 +24°C° 0 mm 3 mps 761 mmHg 94%
    22:00 +22°C° 0 mm 3 mps 761 mmHg 96%
    23:00 +22°C° 0 mm 3 mps 761 mmHg 96%

    24 September, Sunday

    Time Temperature Precipitation Wind Pressure Humidity
    00:00 +22°C° 0 mm 3 mps 760 mmHg 95%
    01:00 +22°C° 0 mm 3 mps 760 mmHg 95%
    02:00 +21°C° 0 mm 3 mps 760 mmHg 95%
    03:00 +21°C° 0 mm 3 mps 760 mmHg 96%
    04:00 +21°C° 0 mm 3 mps 760 mmHg 96%
    05:00 +21°C° 0 mm 3 mps 760 mmHg 95%
    06:00 +21°C° 0 mm 3 mps 761 mmHg 94%
    07:00 +21°C° 0 mm 3 mps 761 mmHg 93%
    08:00 +24°C° 0 mm 3 mps 761 mmHg 80%
    09:00 +27°C° 0 mm 3 mps 761 mmHg 66%
    10:00 +29°C° 0 mm 4 mps 761 mmHg 53%
    11:00 +30°C° 0 mm 4 mps 761 mmHg 49%
    12:00 +32°C° 0 mm 4 mps 760 mmHg 45%
    13:00 +33°C° 0 mm 4 mps 759 mmHg 42%
    14:00 +33°C° 0 mm 4 mps 759 mmHg 44%
    15:00 +32°C° 0 mm 4 mps 759 mmHg 46%
    16:00 +31°C° 0 mm 3 mps 758 mmHg 48%
    17:00 +28°C° 0 mm 3 mps 759 mmHg 60%
    18:00 +26°C° 0 mm 3 mps 759 mmHg 72%
    19:00 +23°C° 0 mm 2 mps 760 mmHg 84%
    20:00 +23°C° 0 mm 2 mps 760 mmHg 88%
    21:00 +21°C° 0 mm 2 mps 760 mmHg 91%
    22:00 +20°C° 0 mm 2 mps 761 mmHg 94%
    23:00 +20°C° 0 mm 2 mps 760 mmHg 94%

    25 September, Monday

    Time Temperature Precipitation Wind Pressure Humidity
    00:00 +19°C° 0 mm 2 mps 760 mmHg 94%
    01:00 +19°C° 0 mm 2 mps 759 mmHg 93%
    02:00 +19°C° 0 mm 2 mps 759 mmHg 93%
    03:00 +19°C° 0 mm 2 mps 759 mmHg 93%
    04:00 +18°C° 0 mm 2 mps 759 mmHg 93%
    05:00 +19°C° 0 mm 3 mps 760 mmHg 92%
    06:00 +19°C° 0 mm 3 mps 760 mmHg 91%
    07:00 +20°C° 0 mm 3 mps 761 mmHg 90%
    08:00 +24°C° 0 mm 3 mps 761 mmHg 78%
    09:00 +26°C° 0 mm 3 mps 761 mmHg 66%
    10:00 +29°C° 0 mm 4 mps 761 mmHg 54%
    11:00 +30°C° 0 mm 4 mps 760 mmHg 51%
    12:00 +32°C° 0 mm 4 mps 760 mmHg 47%
    13:00 +33°C° 0 mm 4 mps 759 mmHg 44%
    14:00 +32°C° 0 mm 4 mps 759 mmHg 46%
    15:00 +32°C° 0 mm 4 mps 759 mmHg 48%
    16:00 +30°C° 0 mm 4 mps 758 mmHg 50%
    17:00 +28°C° 0 mm 3 mps 759 mmHg 63%
    18:00 +26°C° 0 mm 3 mps 759 mmHg 75%
    19:00 +22°C° 0 mm 3 mps 759 mmHg 87%
    20:00 +22°C° 0 mm 3 mps 760 mmHg 90%
    21:00 +21°C° 0 mm 3 mps 760 mmHg 93%
    22:00 +21°C° 0 mm 2 mps 760 mmHg 96%
    23:00 +20°C° 0 mm 2 mps 760 mmHg 96%
    Show more